• In Latvia
  • List of Countries
  • For 7 days
  • Water Temperature
  • Satellite Maps
  • Weather Map
  • Weather Widgets
  • user-avatar
    Login

    Hourly Weather Beshkazak

    Today, 24 October, Wednesday

    Time Temperature Precipitation Wind Pressure Humidity
    00:00 +16°C° 0 mm 2 mps 705 mmHg 31%
    01:00 +16°C° 0 mm 2 mps 705 mmHg 31%
    02:00 +16°C° 0 mm 2 mps 705 mmHg 31%
    03:00 +15°C° 0 mm 2 mps 705 mmHg 31%
    04:00 +15°C° 0 mm 2 mps 705 mmHg 31%
    05:00 +16°C° 0 mm 2 mps 705 mmHg 30%
    06:00 +16°C° 0 mm 2 mps 705 mmHg 29%
    07:00 +16°C° 0 mm 2 mps 705 mmHg 29%
    08:00 +18°C° 0 mm 2 mps 705 mmHg 25%
    09:00 +21°C° 0 mm 1 mps 706 mmHg 21%
    10:00 +23°C° 0 mm 1 mps 706 mmHg 17%
    11:00 +24°C° 0 mm 1 mps 706 mmHg 17%
    12:00 +24°C° 0 mm 1 mps 705 mmHg 17%
    13:00 +24°C° 0 mm 2 mps 705 mmHg 17%
    14:00 +24°C° 0 mm 1 mps 705 mmHg 19%
    15:00 +23°C° 0 mm 1 mps 705 mmHg 21%
    16:00 +22°C° 0 mm 1 mps 705 mmHg 23%
    17:00 +21°C° 0 mm 1 mps 705 mmHg 24%
    18:00 +20°C° 0 mm 1 mps 705 mmHg 25%
    19:00 +19°C° 0 mm 2 mps 705 mmHg 25%
    20:00 +18°C° 0 mm 2 mps 705 mmHg 26%
    21:00 +18°C° 0 mm 2 mps 704 mmHg 27%
    22:00 +18°C° 0 mm 2 mps 704 mmHg 28%
    23:00 +18°C° 0 mm 2 mps 704 mmHg 29%

    Tomorrow, 25 October, Thursday

    Time Temperature Precipitation Wind Pressure Humidity
    00:00 +17°C° 0 mm 2 mps 704 mmHg 29%
    01:00 +17°C° 0 mm 2 mps 704 mmHg 30%
    02:00 +17°C° 0 mm 2 mps 704 mmHg 30%
    03:00 +17°C° 0 mm 2 mps 704 mmHg 30%
    04:00 +17°C° 0 mm 2 mps 704 mmHg 31%
    05:00 +17°C° 0 mm 2 mps 704 mmHg 30%
    06:00 +17°C° 0 mm 2 mps 704 mmHg 30%
    07:00 +18°C° 0 mm 2 mps 705 mmHg 29%
    08:00 +20°C° 0 mm 2 mps 705 mmHg 25%
    09:00 +23°C° 0 mm 2 mps 705 mmHg 21%
    10:00 +25°C° 0 mm 1 mps 705 mmHg 17%
    11:00 +25°C° 0 mm 1 mps 705 mmHg 17%
    12:00 +26°C° 0 mm 2 mps 705 mmHg 16%
    13:00 +27°C° 0 mm 2 mps 705 mmHg 16%
    14:00 +26°C° 0 mm 2 mps 704 mmHg 18%
    15:00 +25°C° 0 mm 1 mps 704 mmHg 20%
    16:00 +24°C° 0 mm 1 mps 704 mmHg 22%
    17:00 +23°C° 0 mm 1 mps 704 mmHg 23%
    18:00 +21°C° 0 mm 2 mps 704 mmHg 24%
    19:00 +20°C° 0 mm 3 mps 704 mmHg 24%
    20:00 +20°C° 0 mm 3 mps 704 mmHg 25%
    21:00 +19°C° 0 mm 3 mps 704 mmHg 25%
    22:00 +19°C° 0 mm 4 mps 704 mmHg 25%
    23:00 +19°C° 0 mm 4 mps 704 mmHg 25%

    Day after tomorrow, 26 October, Friday

    Time Temperature Precipitation Wind Pressure Humidity
    00:00 +19°C° 0 mm 4 mps 704 mmHg 26%
    01:00 +19°C° 0 mm 4 mps 704 mmHg 26%
    02:00 +19°C° 0 mm 4 mps 704 mmHg 26%
    03:00 +19°C° 0 mm 4 mps 704 mmHg 27%
    04:00 +20°C° 0 mm 4 mps 704 mmHg 27%
    05:00 +20°C° 0 mm 4 mps 704 mmHg 27%
    06:00 +20°C° 0 mm 4 mps 704 mmHg 27%
    07:00 +20°C° 0 mm 4 mps 705 mmHg 27%
    08:00 +23°C° 0 mm 4 mps 705 mmHg 24%
    09:00 +26°C° 0 mm 4 mps 705 mmHg 22%
    10:00 +29°C° 0 mm 4 mps 706 mmHg 19%
    11:00 +29°C° 0 mm 5 mps 705 mmHg 19%
    12:00 +29°C° 0 mm 5 mps 705 mmHg 19%
    13:00 +30°C° 0 mm 5 mps 704 mmHg 18%
    14:00 +29°C° 0 mm 4 mps 704 mmHg 20%
    15:00 +28°C° 0 mm 3 mps 704 mmHg 22%
    16:00 +27°C° 0 mm 3 mps 704 mmHg 23%
    17:00 +26°C° 0 mm 3 mps 704 mmHg 24%
    18:00 +25°C° 0 mm 4 mps 704 mmHg 25%
    19:00 +23°C° 0 mm 4 mps 704 mmHg 26%
    20:00 +22°C° 0 mm 4 mps 704 mmHg 26%
    21:00 +22°C° 0 mm 4 mps 704 mmHg 26%
    22:00 +22°C° 0 mm 4 mps 704 mmHg 26%
    23:00 +22°C° 0 mm 5 mps 704 mmHg 26%

    27 October, Saturday

    Time Temperature Precipitation Wind Pressure Humidity
    00:00 +22°C° 0 mm 5 mps 704 mmHg 26%
    01:00 +22°C° 0 mm 5 mps 704 mmHg 27%
    02:00 +22°C° 0 mm 5 mps 704 mmHg 27%
    03:00 +22°C° 0 mm 5 mps 704 mmHg 27%
    04:00 +22°C° 0 mm 5 mps 704 mmHg 27%
    05:00 +22°C° 0 mm 5 mps 704 mmHg 27%
    06:00 +23°C° 0 mm 5 mps 704 mmHg 27%
    07:00 +23°C° 0 mm 5 mps 705 mmHg 27%
    08:00 +26°C° 0 mm 5 mps 705 mmHg 24%
    09:00 +29°C° 0 mm 6 mps 705 mmHg 22%
    10:00 +32°C° 0 mm 6 mps 706 mmHg 19%
    11:00 +32°C° 0 mm 6 mps 706 mmHg 19%
    12:00 +33°C° 0 mm 6 mps 705 mmHg 18%
    13:00 +33°C° 0 mm 6 mps 705 mmHg 18%
    14:00 +32°C° 0 mm 5 mps 705 mmHg 20%
    15:00 +29°C° 0 mm 4 mps 705 mmHg 22%
    16:00 +28°C° 0 mm 2 mps 705 mmHg 24%
    17:00 +27°C° 0 mm 2 mps 706 mmHg 26%
    18:00 +26°C° 0 mm 2 mps 707 mmHg 28%
    19:00 +24°C° 0 mm 2 mps 707 mmHg 30%
    20:00 +24°C° 0.1 mm 2 mps 708 mmHg 32%
    21:00 +23°C° 0.1 mm 2 mps 708 mmHg 34%
    22:00 +23°C° 0.1 mm 2 mps 709 mmHg 36%
    23:00 +21°C° 0.2 mm 2 mps 709 mmHg 40%

    28 October, Sunday

    Time Temperature Precipitation Wind Pressure Humidity
    00:00 +21°C° 0.2 mm 1 mps 709 mmHg 45%
    01:00 +20°C° 0.2 mm 1 mps 710 mmHg 49%
    02:00 +20°C° 0.3 mm 1 mps 710 mmHg 55%
    03:00 +19°C° 0.3 mm 1 mps 710 mmHg 60%
    04:00 +19°C° 0.3 mm 1 mps 711 mmHg 66%
    05:00 +19°C° 0.2 mm 1 mps 711 mmHg 67%
    06:00 +17°C° 0.2 mm 2 mps 712 mmHg 68%
    07:00 +17°C° 0.2 mm 2 mps 712 mmHg 69%
    08:00 +18°C° 0.3 mm 2 mps 712 mmHg 69%
    09:00 +18°C° 0.3 mm 3 mps 713 mmHg 68%
    10:00 +18°C° 0.3 mm 3 mps 713 mmHg 68%
    11:00 +18°C° 0.5 mm 3 mps 713 mmHg 68%
    12:00 +18°C° 0.5 mm 2 mps 712 mmHg 69%
    13:00 +18°C° 0.5 mm 2 mps 712 mmHg 69%
    14:00 +18°C° 0.2 mm 2 mps 712 mmHg 69%
    15:00 +18°C° 0.2 mm 2 mps 712 mmHg 69%
    16:00 +18°C° 0.2 mm 2 mps 712 mmHg 68%
    17:00 +17°C° 0.1 mm 2 mps 712 mmHg 69%
    18:00 +17°C° 0.1 mm 2 mps 712 mmHg 70%
    19:00 +17°C° 0.1 mm 2 mps 712 mmHg 71%
    20:00 +16°C° 0.1 mm 2 mps 712 mmHg 71%
    21:00 +16°C° 0.1 mm 1 mps 712 mmHg 71%
    22:00 +16°C° 0.1 mm 1 mps 712 mmHg 71%
    23:00 +16°C° 0 mm 1 mps 712 mmHg 71%

    29 October, Monday

    Time Temperature Precipitation Wind Pressure Humidity
    00:00 +16°C° 0 mm 1 mps 712 mmHg 71%
    01:00 +15°C° 0 mm 1 mps 711 mmHg 71%
    02:00 +15°C° 0 mm 1 mps 711 mmHg 71%
    03:00 +15°C° 0 mm 1 mps 711 mmHg 71%
    04:00 +15°C° 0 mm 1 mps 711 mmHg 72%
    05:00 +15°C° 0 mm 1 mps 712 mmHg 71%
    06:00 +15°C° 0 mm 1 mps 712 mmHg 70%
    07:00 +16°C° 0 mm 1 mps 712 mmHg 69%
    08:00 +18°C° 0 mm 1 mps 712 mmHg 64%
    09:00 +19°C° 0 mm 1 mps 712 mmHg 60%
    10:00 +19°C° 0 mm 2 mps 713 mmHg 56%
    11:00 +20°C° 0 mm 2 mps 712 mmHg 54%
    12:00 +20°C° 0 mm 2 mps 712 mmHg 53%
    13:00 +21°C° 0 mm 2 mps 712 mmHg 52%
    14:00 +20°C° 0 mm 2 mps 712 mmHg 53%
    15:00 +20°C° 0 mm 2 mps 712 mmHg 54%
    16:00 +20°C° 0 mm 2 mps 712 mmHg 54%
    17:00 +19°C° 0 mm 2 mps 712 mmHg 57%
    18:00 +18°C° 0 mm 2 mps 712 mmHg 59%
    19:00 +17°C° 0 mm 2 mps 712 mmHg 61%
    20:00 +16°C° 0 mm 2 mps 712 mmHg 61%
    21:00 +16°C° 0 mm 2 mps 712 mmHg 61%
    22:00 +15°C° 0 mm 2 mps 712 mmHg 61%
    23:00 +15°C° 0 mm 2 mps 712 mmHg 60%

    30 October, Tuesday

    Time Temperature Precipitation Wind Pressure Humidity
    00:00 +15°C° 0 mm 2 mps 712 mmHg 60%
    01:00 +15°C° 0 mm 2 mps 712 mmHg 60%
    02:00 +14°C° 0 mm 2 mps 712 mmHg 60%
    03:00 +14°C° 0 mm 2 mps 712 mmHg 59%
    04:00 +14°C° 0 mm 2 mps 712 mmHg 59%
    05:00 +14°C° 0 mm 2 mps 712 mmHg 58%
    06:00 +15°C° 0 mm 2 mps 712 mmHg 57%
    07:00 +15°C° 0 mm 2 mps 712 mmHg 56%
    08:00 +17°C° 0 mm 2 mps 712 mmHg 53%
    09:00 +18°C° 0 mm 2 mps 712 mmHg 49%
    10:00 +20°C° 0 mm 2 mps 712 mmHg 46%
    11:00 +20°C° 0 mm 2 mps 712 mmHg 45%
    12:00 +21°C° 0 mm 2 mps 712 mmHg 43%
    13:00 +21°C° 0 mm 3 mps 711 mmHg 42%
    14:00 +21°C° 0 mm 3 mps 711 mmHg 43%
    15:00 +20°C° 0 mm 3 mps 711 mmHg 44%
    16:00 +19°C° 0 mm 3 mps 711 mmHg 44%
    17:00 +18°C° 0 mm 3 mps 711 mmHg 47%
    18:00 +17°C° 0 mm 3 mps 711 mmHg 49%
    19:00 +16°C° 0 mm 3 mps 710 mmHg 52%
    20:00 +16°C° 0 mm 3 mps 710 mmHg 52%
    21:00 +16°C° 0 mm 3 mps 710 mmHg 53%
    22:00 +15°C° 0 mm 2 mps 710 mmHg 53%
    23:00 +15°C° 0 mm 2 mps 710 mmHg 54%
    Show more